sat.trackr.live / text

‹ back to catalog

STARLINK-3344

NORAD 51110 · 2022-005G

PAYLOAD ACTIVE UNKNOWN

§ Identity

Operator
Country
US
Launch date
2022-01-19
Launch site
AFETR
Launch vehicle
Mass (kg)
RCS (m²)

Purposes: comms

External: N2YO · Heavens-Above · Gunter

§ Orbital elements

Epoch: 2026-05-25T03:21:43.574688Z

Period
95.44 min
Inclination
53.2128°
Eccentricity
0.0001689
Mean motion
15.08832879 rev/d
Perigee alt
538.6 km
Apogee alt
540.9 km
Semi-major
6,917.9 km
B*
5.3370e-5
RAAN
305.8981°
Arg perigee
89.1791°
Mean anomaly
270.9395°
Rev number
24,042

§ Raw data

STARLINK-33441 51110U 22005G   26145.14008767  .00000561  00000+0  53370-4 0  99912 51110  53.2128 305.8981 0001689  89.1791 270.9395 15.08832879240422

JSON: /api/v1/satellites/51110 · /tle

For live sub-satellite position, see the globe view (requires WebGL).

§ Visibility from observer

Set your observer location to see the next 7 days of passes ≥ 10°. The values pass through the URL so the page stays shareable.

No JS? Fill the form by hand. The geolocation button needs JavaScript.